Location: Newark
(7.1028°S, 35.3258°W)
Time: 14:56:25
(UTC+00:00)

deb Explorer IX - Pass Details

Date: 27 February 2020
Orbit: 548 x 1100 km, 38.8° (Epoch: 08 April)

Event Time Altitude Azimuth Distance (km) Brightness Sun altitude
Rises 21:20:23 0° 265° (W) 3,115 ? -10.3°
Reaches altitude 10° 21:23:58 10° 239° (WSW) 2,323 ? -11.2°
Maximum altitude 21:26:40 14° 209° (SSW) 2,167 ? -11.9°
Drops below altitude 10° 21:29:34 10° 180° (S) 2,522 ? -12.6°
Sets 21:33:48 0° 155° (SSE) 3,603 ? -13.6°
